Echostar XI

operational
NORAD ID: 33207 Int'l Des: 2008-035 Owner: DISH Country: US
HEOCIRCULARGSO

About Echostar XI

Description loading...

Live Position

Loading 3D Globe...

Upcoming Passes

Altitude History

Altitude vs Time

uPlot chart will show altitude changes over time

Two-Line Element Set

1 33207U 08035A 26063.35669705 -.00000068 00000-0 00000+0 0 9993
2 33207 0.7339 85.4948 0002532 260.0649 194.9457 1.00272211 50163
Epoch: Mar 4, 2026 • Age: 21 hours

Current Status

Altitude 35775.9 km
Velocity 3.08 km/s
Sub-Earth Point -0.74°S, 109.99°W
Launch Date Jul 16, 2008
Age 17.6 years
Type other

Technical Details

Classification Payload
Mass 5525.00 kg
Dry Mass 2000.00 kg
Total Mass 5525.00 kg
Length 5.60 m
Diameter 2.80 m
Span 31.00 m
Shape Box + 2 Pan
Manufacturer LOR
Bus Type SSL-1300
Phase Status Renamed
Owner/State DISH/US

Large Constellations

Loading constellations...